Home   Weather   Reading   Past weeks

Flag for United Kingdom Past Weather in Reading, England, United Kingdom — Yesterday and Last 2 Weeks

Now
36 °F

Clear.


Feels Like: 31 °F
Forecast: 30 / 40 °F
Wind: 6 mph from Southeast

Location: Benson

Current Time: Jan 17, 2017 at 9:20:03 am

Latest Report: Jan 17, 2017 at 7:50 am


Visibility: 10 mi

Pressure: 30.54 "Hg

Humidity: 93%

Dew Point: 34 °F

Location of ReadingLocation

Past Weather in Reading — Graph

°F

Reading Temperature Yesterday

Maximum temperature yesterday: 46 °F (at 12:50 am)
Minimum temperature yesterday: 39 °F (at 6:50 pm)
Average temperature yesterday: 42 °F

High & Low Weather Summary for the Past Weeks

 TemperatureHumidityPressure
High52 °F (Jan 7, 1:50 pm)100% (Jan 2, 9:50 am)30.63 "Hg (Jan 2, 9:50 am)
Low18 °F (Jan 5, 7:50 am)50% (Jan 11, 12:50 pm)29.39 "Hg (Jan 12, 4:02 pm)
Average39 °F89%30.19 "Hg
* Reported Jan 2 7:50 am — Jan 17 7:50 am, Reading, Weather by CustomWeather, © 2017

Note: Actual official high and low records may vary slightly from our data, if they occured in-between our weather recording intervals... More about our weather records

Advertising

Reading Weather History for the Previous 24 Hours

Scroll right to see more
 ConditionsComfort  
Time TempWeatherWind HumidityBarometerVisibility
7:50 am
Tue, Jan 17
36 °FClear.6 mph93%30.54 "Hg10 mi
6:50 am34 °FFog.3 mph93%30.54 "Hg6 mi
5:50 am36 °FFog.2 mph93%30.51 "Hg3 mi
4:50 am36 °FFog.1 mph100%30.51 "Hg3 mi
3:50 am37 °FClear.1 mph93%30.48 "Hg10 mi
2:50 am39 °FPassing clouds.3 mph87%30.48 "HgN/A
1:50 am39 °FPassing clouds.5 mph93%30.48 "Hg6 mi
12:50 am39 °FPassing clouds.2 mph93%30.48 "HgN/A
11:50 pm
Mon, Jan 16
39 °FPartly cloudy.1 mph93%30.48 "HgN/A
10:50 pm39 °FOvercast.2 mph93%30.45 "HgN/A
9:50 pm39 °FPassing clouds.7 mph93%30.45 "HgN/A
8:50 pm39 °FPassing clouds.8 mph93%30.42 "HgN/A
7:50 pm39 °FPassing clouds.8 mph93%30.42 "HgN/A
6:50 pm39 °FPassing clouds.9 mph100%30.39 "Hg1 mi
5:50 pm41 °FFog.6 mph93%30.36 "Hg5 mi
5:06 pm41 °FDrizzle. Low clouds.8 mph93%30.36 "Hg1 mi
4:28 pm41 °FFog.9 mph93%30.33 "Hg4 mi
3:50 pm41 °FDrizzle. Broken clouds.6 mph100%30.33 "Hg2 mi
2:50 pm41 °FDrizzle. Partly sunny.7 mph100%30.33 "Hg2 mi
2:32 pm43 °FDrizzle. Partly sunny.6 mph93%30.33 "Hg4 mi
1:50 pm43 °FDrizzle. Broken clouds.6 mph93%30.33 "HgN/A
12:50 pm43 °FLight rain. Partly sunny.6 mph100%30.33 "Hg4 mi
11:50 am43 °FDrizzle. More clouds than sun.6 mph100%30.33 "Hg2 mi
11:27 am43 °FDrizzle. More clouds than sun.2 mph100%30.33 "Hg2 mi
10:50 am43 °FDrizzle. Broken clouds.5 mph100%30.33 "Hg2 mi
9:50 am43 °FDrizzle. More clouds than sun.3 mph100%30.30 "Hg2 mi
9:15 am43 °FDrizzle. More clouds than sun.2 mph100%30.30 "Hg2 mi
Weather by CustomWeather, © 2017

See weather overviewHow to use our weather pages